CZ-6A DEB

Satellite information

Favourite Embed

Satellite Type and Status

DEBRISIN ORBIT

Key statistics

Satellite CZ-6A DEB at a glance.

Uptime

494

Days in orbit

Revolutions

≈ 14.3

Per day

Orbit

LEO

Low Earth Orbit

Inclination

89.1

Latest

Satellite identification and parameters

Extended collection of information and parameters for CZ-6A DEB.

Object identification

Identified? True

Debris? True

Object name: CZ-6A DEB

International designator: 2024-140LP

Object number (NORAD): 60964

Object ID (CCSDS): 60964

Country: PEOPLES REPUBLIC OF CHINA (PRC)

Current information (Y/N): Y

RCS size: SMALL

Orbital parameters

Period: 100.662 minutes

Inclination: 89.0505 deg

SMA: 7168.099 km

Apoapsis: 794.934 km

Periapsis: 784.993 km

RAAN: 297.7406 deg

Eccentricy: 0.00069344

Argument of periapsis: 182.1803 deg

Mean anomaly: 177.9364 deg

Mean motion: 14.30529386 rev/day

Mean motion (dot): 0.00000531 rev/day2

B* drag term: 0.00019813715 1/REarth

Two-line elements (TLE)

Creation date: Dec. 12, 2025, 10:14 a.m.

Reference frame: TEME

Reference center: EARTH

Epoch: Dec. 12, 2025, 6:38 a.m. UTC

TLE line 0: 0 CZ-6A DEB

TLE line 1: 1 60964U 24140LP 25346.27646108 .00000531 00000-0 19814-3 0 9995

TLE line 2: 2 60964 89.0505 297.7406 0006934 182.1803 177.9364 14.30529386 68444

Live tracking on map

Real-time ground track for satellite CZ-6A DEB.

In-orbit conjunctions

A list of the most updated potential collisions computed for object CZ-6A DEB.

Target Orbit TCA Probability of collision Miss distance Type
COSMOS 1269 LEO 2025-04-03 19:08:15 0.0001603685 595.0 (m) PAYLOAD
COSMOS 2251 DEB LEO 2025-03-02 20:38:45 0.0001519767 656.0 (m) DEBRIS
CZ-6A DEB SSO 2025-02-27 00:09:53 0.0001544479 592.0 (m) DEBRIS
CZ-6A DEB SSO 2025-01-03 01:11:48 0.0001336036 220.0 (m) DEBRIS
FENGYUN 1C DEB SSO 2024-12-21 13:32:58 0.0002548624 842.0 (m) DEBRIS

Associated space launch

18 Low Earth Orbit communication satellites with Ku, Q and V band payloads for the G60 constellation operated by Shanghai Spacecom Satellite Technology (SSST) with funding backed by the Shanghai local government. Initial constellation will consist of 1296 satellites by 2027 with long term plans to expand it to 12000 satellites.

CZ-6A DEB was lifted into orbit during the mission ‘Long March 6A | G60 Polar Group 01’, on board a Long March 6A space rocket.

The launch took place on Aug. 6, 2024, 6:42 a.m. from Launch Complex 9A.

For more information about the launch, click the button.

Launch to space Long March 6A | G60 Polar Group 01
Long March 6A | G60 Polar Group 01

Agency: N/A

Status: Launch Successful

Launch date: Aug. 6, 2024, 6:42 a.m. UTC

Rocket: Long March 6A

Launch pad: Launch Complex 9A

Location: Taiyuan Satellite Launch Center, People's Republic of China

...

Latest news about this satellite

News about space launch
Brightness of first Chinese broadband constellation satellites alarms astronomers

The first satellites of a Chinese broadband constellation are significantly brighter than those of Western systems, posing a new challenge for astronomers.

News about space launch
Chinese rocket stage breaks up into cloud of more than 700 pieces of space debris

HELSINKI — A Chinese Long March 6A rocket’s upper stage has fragmented into a cloud of over 700 pieces of space debris, adding to concerns about long-term orbital safety. China […]

News about space launch
China's Thousand Sails Megaconstellation Kicks Off with Dangerous Debris Field

China's Thousand Sails Megaconstellation Kicks Off with Dangerous Debris Field


Newsletter sign-up

Weekly statistics, charts and insights to help you stay on top of the space industry.